Location: Newark
(44.2003°N, 3.2583°E)
Time: 04:26:28
(UTC+00:00)

Explorer 7 - All Passes

Search period start: 20 October 2019 00:00
Search period end: 30 October 2019 00:00
Orbit: 485 x 680 km, 50.3° (Epoch: 19 October)

Date Brightness Start Highest point End Pass type
(mag) Time Alt. Az. Time Alt. Az. Time Alt. Az.
20 Oct - 10:01:19 10° S 10:04:01 19° SE 10:06:42 10° E daylight
20 Oct - 11:40:21 10° WSW 11:44:06 81° NNW 11:47:54 10° ENE daylight
20 Oct - 13:21:29 10° WNW 13:24:56 34° N 13:28:30 10° ENE daylight
20 Oct - 15:02:23 10° WNW 15:06:02 40° NNE 15:09:50 10° E daylight
20 Oct - 16:42:48 10° WNW 16:46:43 66° SSW 16:50:50 10° SE daylight
20 Oct - 18:24:52 10° WSW 18:26:41 13° SW 18:28:33 10° SSW visible
21 Oct - 10:05:30 10° SSW 10:08:49 30° SE 10:12:09 10° ENE daylight
21 Oct - 11:45:27 10° WSW 11:49:08 57° NNW 11:52:54 10° ENE daylight
21 Oct - 13:26:41 10° WNW 13:30:07 32° N 13:33:38 10° ENE daylight
21 Oct - 15:07:24 10° WNW 15:11:09 50° NNE 15:15:04 10° E daylight
21 Oct - 16:47:54 10° WNW 16:51:38 42° SW 16:55:34 10° SE daylight
22 Oct - 10:10:04 10° SW 10:13:43 48° SE 10:17:21 10° ENE daylight
22 Oct - 11:50:39 10° W 11:54:14 43° NNW 11:57:53 10° ENE daylight
22 Oct - 13:31:51 10° WNW 13:35:18 32° N 13:38:50 10° ENE daylight
22 Oct - 15:12:22 10° WNW 15:16:13 67° NNE 15:20:14 10° ESE daylight
22 Oct - 16:53:09 10° W 16:56:30 27° SW 17:00:00 10° SSE daylight
23 Oct - 08:36:45 10° SSE 08:38:42 14° SE 08:40:38 10° ESE daylight
23 Oct - 10:14:53 10° SW 10:18:39 77° SSE 10:22:24 10° ENE daylight
23 Oct - 11:55:53 10° W 11:59:22 36° N 12:02:55 10° ENE daylight
23 Oct - 13:36:57 10° WNW 13:40:27 35° N 13:44:05 10° ENE daylight
23 Oct - 15:17:23 10° WNW 15:21:14 85° SSW 15:25:16 10° ESE daylight
23 Oct - 16:58:43 10° W 17:01:19 17° SW 17:03:59 10° S daylight
24 Oct - 08:40:28 10° S 08:43:29 22° SE 08:46:27 10° E daylight
24 Oct - 10:19:53 10° WSW 10:23:39 72° NNW 10:27:25 10° ENE daylight
24 Oct - 12:01:07 10° WNW 12:04:32 32° N 12:08:00 10° ENE daylight
24 Oct - 13:41:59 10° WNW 13:45:36 42° NNE 13:49:20 10° E daylight
24 Oct - 15:22:25 10° WNW 15:26:11 56° SW 15:30:08 10° SE daylight
25 Oct - 08:44:48 10° SSW 08:48:20 35° SE 08:51:47 10° ENE daylight
25 Oct - 10:25:01 10° W 10:28:43 52° NNW 10:32:24 10° ENE daylight
25 Oct - 12:06:19 10° WNW 12:09:42 31° N 12:13:09 10° ENE daylight
25 Oct - 13:46:59 10° WNW 13:50:42 54° NNE 13:54:32 10° E daylight
25 Oct - 15:27:33 10° WNW 15:31:06 35° SW 15:34:47 10° SSE daylight
26 Oct - 08:49:27 10° SW 08:53:14 57° SE 08:56:55 10° ENE daylight
26 Oct - 10:30:14 10° W 10:33:49 40° NNW 10:37:24 10° ENE daylight
26 Oct - 12:11:27 10° WNW 12:14:53 33° N 12:18:22 10° ENE daylight
26 Oct - 13:51:58 10° WNW 13:55:45 75° NNE 13:59:39 10° ESE daylight
26 Oct - 15:32:54 10° W 15:35:57 22° SW 15:39:05 10° S daylight
27 Oct - 07:15:38 10° S 07:18:08 16° SE 07:20:35 10° E daylight
27 Oct - 08:54:20 10° WSW 08:58:11 88° SSE 09:01:57 10° ENE daylight
27 Oct - 10:35:28 10° WNW 10:38:57 34° N 10:42:26 10° ENE daylight
27 Oct - 12:16:32 10° WNW 12:20:02 36° NNE 12:23:36 10° E daylight
27 Oct - 13:56:58 10° WNW 14:00:44 75° SSW 14:04:39 10° SE daylight
27 Oct - 15:38:43 10° WSW 15:40:43 14° SW 15:42:47 10° SSW daylight
28 Oct - 07:19:37 10° SSW 07:22:56 26° SE 07:26:10 10° E daylight
28 Oct - 08:59:23 10° WSW 09:03:12 64° NNW 09:06:56 10° ENE daylight
28 Oct - 10:40:42 10° WNW 10:44:06 32° N 10:47:32 10° ENE daylight
28 Oct - 12:21:32 10° WNW 12:25:10 44° NNE 12:28:50 10° E daylight
28 Oct - 14:02:01 10° WNW 14:05:40 47° SW 14:09:26 10° SE daylight
29 Oct - 07:24:05 10° SW 07:27:48 42° SE 07:31:24 10° ENE daylight
29 Oct - 09:04:32 10° W 09:08:16 47° NNW 09:11:55 10° ENE daylight
29 Oct - 10:45:53 10° WNW 10:49:17 31° N 10:52:41 10° ENE daylight
29 Oct - 12:26:31 10° WNW 12:30:14 59° NNE 12:34:01 10° ESE daylight
29 Oct - 14:07:13 10° WNW 14:10:33 30° SW 14:13:59 10° SSE daylight
